FW9947 Weather Reports


time (UTC)temp
F
wind
direction
speed
knots
gust
knots
rain 1hr
in
rain 24hr
in
rain mn
in
humidity
%
barometer
mb
20260504214719 64 23 0.9 0.9 0.00 0.00 0.00 80 1027.2
20260504214215 64 18 0.9 0.9 0.00 0.00 0.00 80 1027.3
20260504213712 64 12 0.9 0.9 0.00 0.00 0.00 81 1027.4
20260504213209 63 18 0.9 0.9 0.00 0.00 0.00 81 1027.5
20260504212706 63 15 0.9 0.9 0.00 0.00 0.00 82 1027.4
20260504212203 64 10 0.9 0.9 0.00 0.00 0.00 81 1027.8
20260504211700 64 29 1.7 1.7 0.00 0.00 0.00 81 1027.4
20260504211155 64 21 2.6 2.6 0.00 0.00 0.00 80 1027.7
20260504210654 64 1 2.6 2.6 0.00 0.00 0.00 80 1027.4
20260504210150 64 14 3.5 4.3 0.00 0.00 0.00 80 1027.8
20260504205647 64 9 2.6 2.6 0.00 0.00 0.00 80 1027.8
20260504205144 64 15 1.7 1.7 0.00 0.00 0.00 80 1027.8
20260504204643 64 21 2.6 2.6 0.00 0.00 0.00 80 1027.9
20260504204142 64 6 2.6 2.6 0.00 0.00 0.00 80 1028.0
20260504203640 64 8 3.5 4.3 0.00 0.00 0.00 80 1028.1
20260504203137 64 355 2.6 4.3 0.00 0.00 0.00 81 1028.0
20260504202637 64 5 2.6 2.6 0.00 0.00 0.00 81 1028.1
20260504202134 64 11 2.6 2.6 0.00 0.00 0.00 81 1028.1
20260504201631 64 356 2.6 2.6 0.00 0.00 0.00 82 1028.2
20260504201129 64 0 2.6 4.3 0.00 0.00 0.00 82 1028.1
20260504200626 64 343 2.6 2.6 0.00 0.00 0.00 82 1028.3
20260504200122 64 354 2.6 4.3 0.00 0.00 0.00 82 1028.3
20260504195618 64 351 2.6 2.6 0.00 0.00 0.00 81 1028.1
20260504195115 65 6 2.6 2.6 0.00 0.00 0.00 81 1028.5
20260504194612 65 351 3.5 4.3 0.00 0.00 0.00 81 1028.5
20260504194107 65 356 1.7 1.7 0.00 0.00 0.00 81 1028.6
20260504193604 65 9 2.6 2.6 0.00 0.00 0.00 80 1028.3
20260504193103 65 8 1.7 2.6 0.00 0.00 0.00 80 1028.3
20260504192600 65 323 1.7 4.3 0.00 0.00 0.00 81 1028.2
20260504192058 65 341 2.6 2.6 0.00 0.00 0.00 81 1028.1
20260504191556 65 338 1.7 1.7 0.00 0.00 0.00 81 1028.2
20260504191052 65 312 2.6 2.6 0.00 0.00 0.00 80 1028.2
20260504190548 65 332 1.7 1.7 0.00 0.00 0.00 80 1028.3
20260504190044 65 338 1.7 1.7 0.00 0.00 0.00 80 1028.0
20260504185542 66 345 1.7 1.7 0.00 0.00 0.00 80 1028.0
20260504185038 65 353 1.7 2.6 0.00 0.00 0.00 80 1028.1
20260504184534 65 357 0.9 1.7 0.00 0.00 0.00 81 1028.1
20260504184029 65 10 1.7 1.7 0.00 0.00 0.00 81 1028.1
20260504183526 65 6 0.9 0.9 0.00 0.00 0.00 80 1027.9
20260504183025 65 3 2.6 2.6 0.00 0.00 0.00 80 1028.0
20260504182521 66 338 0.9 1.7 0.00 0.00 0.00 80 1028.1
20260504182018 66 335 0.9 0.9 0.00 0.00 0.00 80 1028.5
20260504181515 66 341 2.6 2.6 0.00 0.00 0.00 79 1028.5
20260504181014 66 345 1.7 1.7 0.00 0.00 0.00 79 1028.1
20260504180512 66 352 0.9 0.9 0.00 0.00 0.00 79 1028.3
20260504180011 66 333 0.9 1.7 0.00 0.00 0.00 79 1028.2
20260504175508 67 351 1.7 1.7 0.00 0.00 0.00 78 1028.1
20260504175005 67 323 1.7 1.7 0.00 0.00 0.00 78 1028.0
20260504174503 67 320 1.7 1.7 0.00 0.00 0.00 78 1028.1
20260504173959 67 336 0.9 1.7 0.00 0.00 0.00 77 1028.3
20260504173456 68 348 0.9 0.9 0.00 0.00 0.00 77 1028.5
20260504172953 68 348 1.7 1.7 0.00 0.00 0.00 76 1028.0
20260504172449 68 355 4.3 6.1 0.00 0.00 0.00 76 1027.9
20260504171946 67 337 2.6 4.3 0.00 0.00 0.00 77 1028.1
20260504171443 67 340 1.7 1.7 0.00 0.00 0.00 78 1027.9
20260504170940 67 354 1.7 1.7 0.00 0.00 0.00 77 1028.0
20260504170436 67 339 1.7 1.7 0.00 0.00 0.00 77 1028.1
20260504160355 68 337 0.0 0.9 0.00 0.00 0.00 76 1028.2
20260504150820 71 343 0.9 0.9 0.00 0.00 0.00 72 1028.1
20260504150316 71 339 0.9 0.9 0.00 0.00 0.00 72 1028.1
20260504141247 75 262 1.7 2.6 0.00 0.00 0.00 66 1028.5
20260504140743 75 20 3.5 5.2 0.00 0.00 0.00 65 1028.1
20260504140239 74 322 4.3 5.2 0.00 0.00 0.00 65 1028.5
20260504130708 76 306 3.5 4.3 0.00 0.00 0.00 64 1028.1
20260504130203 76 351 7.0 7.8 0.00 0.00 0.00 64 1028.6
20260504120127 75 355 3.5 6.1 0.00 0.00 0.00 66 1028.8
20260504110555 73 12 5.2 7.0 0.00 0.00 0.00 69 1030.0
20260504100517 72 331 5.2 7.0 0.00 0.00 0.00 71 1031.1
20260504081910 69 12 2.6 2.6 0.00 0.00 0.00 74 1032.4
20260504081407 70 16 4.3 5.2 0.00 0.00 0.00 73 1032.5
20260504080903 69 342 2.6 2.6 0.00 0.00 0.00 75 1032.6
20260504080400 69 332 2.6 2.6 0.00 0.00 0.00 75 1032.6
20260504070327 68 84 1.7 1.7 0.00 0.00 0.00 74 1033.1
20260504060247 60 106 0.9 0.9 0.00 0.00 0.00 85 1032.6
20260504050715 55 112 0.9 0.9 0.00 0.00 0.00 94 1032.4
20260504050212 55 103 1.7 1.7 0.00 0.00 0.00 95 1032.4
20260504045709 54 135 2.6 2.6 0.00 0.00 0.00 95 1032.2
20260504045204 53 118 1.7 1.7 0.00 0.00 0.00 95 1032.2
20260504044702 53 114 1.7 1.7 0.00 0.00 0.00 95 1032.3
20260504044159 53 97 0.9 0.9 0.00 0.00 0.00 95 1032.3
20260504043655 53 95 0.0 0.9 0.00 0.00 0.00 95 1032.0
20260504043152 53 97 0.0 0.9 0.00 0.00 0.00 95 1031.9
20260504042650 53 127 0.9 1.7 0.00 0.00 0.00 95 1032.0
20260504042146 53 135 1.7 1.7 0.00 0.00 0.00 94 1032.2
20260504041642 54 123 1.7 1.7 0.00 0.00 0.00 94 1031.9
20260504041138 54 102 0.9 0.9 0.00 0.00 0.00 94 1032.0
20260504040636 54 105 0.9 1.7 0.00 0.00 0.00 94 1031.9
20260504040133 54 117 2.6 2.6 0.00 0.00 0.00 94 1031.9
20260504035629 54 122 2.6 2.6 0.00 0.00 0.00 94 1031.9
20260504035126 54 128 1.7 1.7 0.00 0.00 0.00 94 1031.9
20260504034624 54 103 0.9 1.7 0.00 0.00 0.00 93 1031.9
20260504034120 54 116 1.7 1.7 0.00 0.00 0.00 93 1031.9
20260504033618 54 130 1.7 1.7 0.00 0.00 0.00 92 1031.9
20260504033115 54 122 0.9 1.7 0.00 0.00 0.00 91 1031.9
20260504032612 55 100 0.0 0.9 0.00 0.00 0.00 90 1031.6
20260504032109 56 100 0.0 0.0 0.00 0.00 0.00 89 1031.6
20260504031606 57 101 0.0 0.0 0.00 0.00 0.00 87 1031.6
20260504031102 58 100 0.0 0.0 0.00 0.00 0.00 86 1031.9
20260504030559 59 105 0.0 0.0 0.00 0.00 0.00 84 1031.6
20260504030055 60 112 0.0 0.0 0.00 0.00 0.00 82 1031.6
20260504025553 61 117 0.0 0.0 0.00 0.00 0.00 80 1031.8
20260504025049 60 200 0.9 0.9 0.00 0.00 0.00 81 1031.6
20260504024547 60 161 0.9 0.9 0.00 0.00 0.00 82 1031.6
20260504024043 60 172 0.0 0.9 0.00 0.00 0.00 83 1031.5
20260504023540 60 135 0.0 0.9 0.00 0.00 0.00 82 1031.4
20260504023036 59 121 0.0 0.0 0.00 0.00 0.00 83 1031.6
20260504022532 59 150 0.0 0.9 0.00 0.00 0.00 83 1031.6
20260504022029 59 148 0.9 0.9 0.00 0.00 0.00 84 1031.4
20260504021526 59 121 0.9 0.9 0.00 0.00 0.00 84 1031.4
20260504021023 59 106 0.0 0.0 0.00 0.00 0.00 84 1031.6
20260504020520 59 110 0.0 0.0 0.00 0.00 0.00 83 1031.7
20260504020017 59 155 0.9 1.7 0.00 0.00 0.00 83 1031.4
20260504015513 59 145 1.7 1.7 0.00 0.00 0.00 83 1031.5
20260504015009 59 128 1.7 1.7 0.00 0.00 0.00 83 1031.5
20260504014505 59 125 1.7 1.7 0.00 0.00 0.00 83 1031.6
20260504014003 60 119 1.7 1.7 0.00 0.00 0.00 82 1031.5
20260504013501 60 123 1.7 1.7 0.00 0.00 0.00 82 1031.6
20260504012956 60 118 1.7 1.7 0.00 0.00 0.00 82 1031.7
20260504012454 60 120 0.9 1.7 0.00 0.00 0.00 83 1031.6
20260504011952 59 126 1.7 1.7 0.00 0.00 0.00 83 1031.7
20260504011448 60 136 1.7 1.7 0.00 0.00 0.00 83 1031.6
20260504010944 60 131 1.7 1.7 0.00 0.00 0.00 82 1031.6
20260504010440 60 129 1.7 1.7 0.00 0.00 0.00 82 1031.7
20260504005936 60 124 1.7 1.7 0.00 0.00 0.00 83 1031.8
20260504005433 59 125 1.7 1.7 0.00 0.00 0.00 85 1031.7
20260504004931 58 135 2.6 2.6 0.00 0.00 0.00 87 1031.9
20260504004428 57 163 0.9 1.7 0.00 0.00 0.00 90 1031.7
20260504003925 55 146 2.6 2.6 0.00 0.00 0.00 93 1031.9
20260504003421 55 136 1.7 1.7 0.00 0.00 0.00 93 1031.9
20260504002918 55 121 2.6 2.6 0.00 0.00 0.00 92 1032.2
20260504002415 55 106 1.7 1.7 0.00 0.00 0.00 92 1031.8
20260504001913 55 102 1.7 1.7 0.00 0.00 0.00 90 1031.8
20260504001410 56 93 0.9 0.9 0.00 0.00 0.00 88 1032.3
20260504000906 59 94 0.0 0.9 0.00 0.00 0.00 85 1032.0
20260504000404 59 110 0.9 0.9 0.00 0.00 0.00 84 1032.0
20260503235901 60 111 1.7 1.7 0.00 0.00 0.00 83 1032.2
20260503235359 60 125 1.7 1.7 0.00 0.00 0.00 83 1032.3
20260503234856 59 129 1.7 1.7 0.00 0.00 0.00 84 1032.3
20260503234354 59 129 1.7 1.7 0.00 0.00 0.00 85 1032.4
20260503233851 58 122 1.7 1.7 0.00 0.00 0.00 88 1032.4
20260503233347 56 141 2.6 2.6 0.00 0.00 0.00 91 1032.3
20260503232844 55 117 1.7 1.7 0.00 0.00 0.00 91 1032.3
20260503232341 56 97 0.9 0.9 0.00 0.00 0.00 90 1032.5
20260503231839 57 106 0.9 0.9 0.00 0.00 0.00 89 1032.5
20260503231336 57 102 0.9 0.9 0.00 0.00 0.00 88 1032.6
20260503230832 57 121 1.7 1.7 0.00 0.00 0.00 90 1032.5
20260503230329 56 125 1.7 1.7 0.00 0.00 0.00 91 1032.4
20260503225826 56 133 1.7 1.7 0.00 0.00 0.00 89 1032.6
20260503225322 57 117 1.7 1.7 0.00 0.00 0.00 87 1032.7
20260503224819 59 122 0.9 1.7 0.00 0.00 0.00 85 1032.5
20260503224316 60 123 1.7 1.7 0.00 0.00 0.00 83 1032.6
20260503223814 60 128 1.7 1.7 0.00 0.00 0.00 81 1032.6
20260503223311 60 129 1.7 1.7 0.00 0.00 0.00 82 1032.5
20260503222807 60 133 1.7 1.7 0.00 0.00 0.00 83 1032.7
20260503222306 59 149 1.7 1.7 0.00 0.00 0.00 85 1032.7
20260503221803 58 128 2.6 2.6 0.00 0.00 0.00 88 1032.7
20260503221301 56 129 0.9 0.9 0.00 0.00 0.00 91 1032.9
20260503220757 56 117 1.7 1.7 0.00 0.00 0.00 90 1032.9
20260503220254 57 94 0.9 0.9 0.00 0.00 0.00 90 1032.9
20260503215751 57 117 0.9 1.7 0.00 0.00 0.00 89 1032.9
20260503215248 58 96 0.9 0.9 0.00 0.00 0.00 87 1033.1